Clearfield, PA

10:56 AM EDT on September 26, 2017 (GMT -0400)
Clearfield-Lawrence

Weather History for KFIG - December, 2012

Change the Weather History Date:

Tuesday, December 25, 2012

  Actual Average (KDUJ) Record (KDUJ)
Temperature  
Mean Temperature 30 °F -  
Max Temperature 34 °F 30 °F 63 °F (1982)
Min Temperature 26 °F 16 °F -14 °F (1983)
Degree Days  
Heating Degree Days 34    
Moisture  
Dew Point 28 °F    
Average Humidity 89    
Maximum Humidity 100    
Minimum Humidity 75    
Precipitation  
Precipitation 0.00 in - - ()
Sea Level Pressure  
Sea Level Pressure 30.07 in    
Wind  
Wind Speed 2 mph (NNW)    
Max Wind Speed 8 mph    
Max Gust Speed -    
Visibility 6 miles    
Events Fog , Snow    
Averages and records for this station are not official NWS values.
T = Trace of Precipitation, MM = Missing Value Source: NWS Daily Summary

Daily Weather History Graph

Daily Weather History Graph

Search for Another Location

Airport or City:

Trip Planner

Search our weather history database for the weather conditions in past years. The results will help you decide how hot, cold, wet, or windy it might be!

Date:

Astronomy

Dec. 25, 2012 Rise Set
Actual Time 7:37 AM EST 4:50 PM EST
Civil Twilight 7:06 AM EST 5:22 PM EST
Nautical Twilight 6:31 AM EST 5:56 PM EST
Astronomical Twilight 5:57 AM EST 6:30 PM EST
Moon 2:58 PM EST (12/25) 5:07 AM EST (12/25)
Length of Visible Light 10h 16m
Length of Day
9h 13m
Waxing Gibbous, 93% of the Moon is Illuminated
Dec 25
Waxing Gibbous
Dec 28
Full
Jan 4
Last Quarter
Jan 11
New
Jan 18
First Quarter

Hourly Weather History & Observations

Time (EST) Temp. Windchill Dew Point Humidity Pressure Visibility Wind Dir Wind Speed Gust Speed Precip Events Conditions
12:04 AM 30.2 °F - 28.4 °F 93% 29.83 in 3.0 mi Calm Calm - N/A   Overcast
12:12 AM 30.2 °F - 28.4 °F 93% 29.83 in 2.5 mi Calm Calm - N/A   Overcast
12:38 AM 30.2 °F - 28.4 °F 93% 29.84 in 1.5 mi Calm Calm - N/A   Overcast
12:54 AM 28.9 °F - 28.9 °F 100% 29.89 in 0.8 mi Calm Calm - N/A   Overcast
1:33 AM 30.2 °F - 28.4 °F 93% 29.86 in 1.2 mi Calm Calm - N/A   Overcast
1:54 AM 30.0 °F - 28.9 °F 96% 29.92 in 0.5 mi Calm Calm - N/A Fog Light Freezing Fog
2:37 AM 30.2 °F 26.7 °F 28.4 °F 93% 29.89 in 0.2 mi SW 3.5 mph - N/A Fog Light Freezing Fog
2:46 AM 30.2 °F 26.7 °F 28.4 °F 93% 29.89 in 0.5 mi SW 3.5 mph - N/A Fog Light Freezing Fog
2:54 AM 30.0 °F - 30.0 °F 100% 29.94 in 0.5 mi Calm Calm - N/A Fog Light Freezing Fog
3:14 AM 30.2 °F 26.7 °F 30.2 °F 100% 29.90 in 2.0 mi WNW 3.5 mph - N/A   Overcast
3:20 AM 30.2 °F 26.7 °F 30.2 °F 100% 29.90 in 3.0 mi West 3.5 mph - N/A   Overcast
3:54 AM 30.9 °F - 30.9 °F 100% 29.95 in 4.0 mi Calm Calm - N/A   Overcast
4:54 AM 32.0 °F 26.4 °F 30.9 °F 96% 29.97 in 4.0 mi WNW 5.8 mph - 0.00 in Snow Light Snow
5:54 AM 32.0 °F 28.7 °F 32.0 °F 100% 30.01 in 5.0 mi West 3.5 mph - 0.00 in   Overcast
6:54 AM 32.0 °F 28.7 °F 32.0 °F 100% 30.05 in 3.0 mi West 3.5 mph - 0.00 in Snow Light Snow
7:54 AM 33.1 °F 28.7 °F 30.9 °F 92% 30.08 in 8.0 mi WNW 4.6 mph - 0.00 in   Overcast
8:54 AM 33.1 °F 28.7 °F 30.0 °F 89% 30.10 in 7.0 mi WNW 4.6 mph - N/A   Overcast
9:12 AM 33.8 °F 29.6 °F 30.2 °F 87% 30.07 in 7.0 mi WNW 4.6 mph - N/A   Overcast
9:54 AM 33.1 °F - 30.0 °F 89% 30.13 in 7.0 mi Calm Calm - N/A   Overcast
10:15 AM 33.8 °F - 30.2 °F 87% 30.10 in 8.0 mi Calm Calm - N/A   Overcast
10:54 AM 33.1 °F - 30.0 °F 89% 30.14 in 7.0 mi Calm Calm - N/A   Overcast
11:54 AM 33.1 °F 28.7 °F 30.0 °F 89% 30.16 in 10.0 mi WNW 4.6 mph - N/A   Overcast
12:54 PM 34.0 °F - 30.0 °F 85% 30.15 in 10.0 mi Calm Calm - N/A   Overcast
1:07 PM 33.8 °F - 30.2 °F 87% 30.11 in 10.0 mi Calm Calm - N/A   Overcast
1:54 PM 33.1 °F 28.7 °F 28.9 °F 85% 30.15 in 10.0 mi North 4.6 mph - N/A   Overcast
2:54 PM 32.0 °F 26.4 °F 28.9 °F 88% 30.16 in 10.0 mi NNW 5.8 mph - N/A   Overcast
3:54 PM 32.0 °F - 28.0 °F 85% 30.19 in 10.0 mi Calm Calm - N/A   Overcast
4:05 PM 32.0 °F 28.7 °F 28.4 °F 87% 30.14 in 10.0 mi North 3.5 mph - N/A   Overcast
4:41 PM 32.0 °F 28.7 °F 28.4 °F 87% 30.16 in 10.0 mi NNW 3.5 mph - N/A   Overcast
4:54 PM 32.0 °F 27.5 °F 28.0 °F 85% 30.22 in 10.0 mi North 4.6 mph - N/A   Overcast
5:20 PM 32.0 °F 25.6 °F 26.6 °F 80% 30.18 in 10.0 mi NNE 6.9 mph - N/A   Overcast
5:54 PM 30.9 °F 23.5 °F 26.1 °F 82% 30.22 in 10.0 mi NNE 8.1 mph - N/A   Overcast
6:54 PM 30.9 °F 23.5 °F 24.1 °F 76% 30.23 in 10.0 mi NNE 8.1 mph - N/A   Overcast
7:54 PM 30.0 °F 25.2 °F 23.0 °F 75% 30.24 in 10.0 mi NNE 4.6 mph - N/A   Overcast
8:54 PM 28.9 °F 23.9 °F 21.9 °F 75% 30.25 in 10.0 mi NNE 4.6 mph - N/A   Overcast
9:54 PM 28.0 °F 22.8 °F 21.0 °F 75% 30.25 in 10.0 mi NE 4.6 mph - N/A   Overcast
10:54 PM 27.0 °F 19.5 °F 19.9 °F 75% 30.27 in 10.0 mi East 6.9 mph - N/A   Overcast
11:54 PM 26.1 °F 19.4 °F 19.0 °F 75% 30.27 in 10.0 mi ENE 5.8 mph - N/A   Overcast